Time,TemperatureF,DewpointF,PressureIn,WindDirection,WindDirectionDegrees,WindSpeedMPH,WindSpeedGustMPH,Humidity,HourlyPrecipIn,Conditions,Clouds,dailyrainin,SoftwareType,DateUTC
2013-02-19 00:10:00,24.7,11.0,30.18,SW,216,2.0,-999.0,55,-99.99,,,0.02,weatherlink.com 1.10,2013-02-19 05:10:00,
2013-02-19 00:25:00,25.2,11.0,30.17,SW,217,3.0,-999.0,55,-99.99,,,0.00,weatherlink.com 1.10,2013-02-19 05:25:00,
2013-02-19 00:41:00,25.0,11.0,30.18,SW,216,3.0,-999.0,55,-99.99,,,0.00,weatherlink.com 1.10,2013-02-19 05:41:00,
2013-02-19 00:55:00,24.8,11.0,30.17,SSW,210,2.0,-999.0,55,-99.99,,,0.00,weatherlink.com 1.10,2013-02-19 05:55:00,
2013-02-19 01:10:00,24.0,11.0,30.17,SSW,210,2.0,-999.0,58,-99.99,,,0.00,weatherlink.com 1.10,2013-02-19 06:10:00,
2013-02-19 01:25:00,23.8,11.0,30.17,SSW,210,2.0,-999.0,58,-99.99,,,0.00,weatherlink.com 1.10,2013-02-19 06:25:00,
2013-02-19 01:40:00,24.1,11.0,30.17,SSW,210,1.0,-999.0,58,-99.99,,,0.00,weatherlink.com 1.10,2013-02-19 06:40:00,
2013-02-19 01:55:00,25.4,12.0,30.17,SSW,210,2.0,-999.0,56,-99.99,,,0.00,weatherlink.com 1.10,2013-02-19 06:55:00,
2013-02-19 02:10:00,26.4,13.0,30.17,SSW,205,2.0,-999.0,57,-99.99,,,0.00,weatherlink.com 1.10,2013-02-19 07:10:00,
2013-02-19 02:25:00,27.1,14.0,30.16,SSW,210,2.0,-999.0,57,-99.99,,,0.00,weatherlink.com 1.10,2013-02-19 07:25:00,
2013-02-19 02:40:00,27.8,14.0,30.16,SSW,205,1.0,-999.0,57,-99.99,,,0.00,weatherlink.com 1.10,2013-02-19 07:40:00,
2013-02-19 02:55:00,28.4,16.0,30.16,SSW,210,5.0,-999.0,59,-99.99,,,0.00,weatherlink.com 1.10,2013-02-19 07:55:00,
2013-02-19 03:10:00,28.4,17.0,30.16,SSW,210,3.0,-999.0,62,-99.99,,,0.00,weatherlink.com 1.10,2013-02-19 08:10:00,
2013-02-19 03:25:00,28.1,16.0,30.15,SSW,210,2.0,-999.0,62,-99.99,,,0.00,weatherlink.com 1.10,2013-02-19 08:25:00,
2013-02-19 03:40:00,27.7,17.0,30.16,SSW,210,2.0,-999.0,64,-99.99,,,0.00,weatherlink.com 1.10,2013-02-19 08:40:00,
2013-02-19 03:55:00,27.8,18.0,30.15,SSW,210,3.0,-999.0,67,-99.99,,,0.00,weatherlink.com 1.10,2013-02-19 08:55:00,
2013-02-19 04:10:00,27.2,18.0,30.15,SSW,210,2.0,-999.0,68,-99.99,,,0.00,weatherlink.com 1.10,2013-02-19 09:10:00,
2013-02-19 04:25:00,27.4,18.0,30.14,SSW,210,0.0,-999.0,67,-99.99,,,0.00,weatherlink.com 1.10,2013-02-19 09:25:00,
2013-02-19 04:40:00,27.4,18.0,30.15,SSW,210,2.0,-999.0,68,-99.99,,,0.00,weatherlink.com 1.10,2013-02-19 09:40:00,
2013-02-19 04:55:00,26.2,17.0,30.15,SSW,210,0.0,-999.0,69,-99.99,,,0.00,weatherlink.com 1.10,2013-02-19 09:55:00,
2013-02-19 05:10:00,26.6,18.0,30.16,SSW,210,2.0,-999.0,69,-99.99,,,0.00,weatherlink.com 1.10,2013-02-19 10:10:00,
2013-02-19 05:25:00,25.6,17.0,30.16,SSW,210,2.0,-999.0,70,-99.99,,,0.00,weatherlink.com 1.10,2013-02-19 10:25:00,
2013-02-19 05:40:00,26.0,17.0,30.16,SSW,210,2.0,-999.0,70,-99.99,,,0.00,weatherlink.com 1.10,2013-02-19 10:40:00,
2013-02-19 05:55:00,26.6,18.0,30.16,SSW,210,1.0,-999.0,70,-99.99,,,0.00,weatherlink.com 1.10,2013-02-19 10:55:00,
2013-02-19 06:10:00,26.5,18.0,30.15,SSW,210,1.0,-999.0,70,-99.99,,,0.00,weatherlink.com 1.10,2013-02-19 11:10:00,
2013-02-19 06:25:00,26.7,18.0,30.15,SSW,210,0.0,-999.0,70,-99.99,,,0.00,weatherlink.com 1.10,2013-02-19 11:25:00,
2013-02-19 06:40:00,26.9,18.0,30.14,SSW,210,2.0,-999.0,70,-99.99,,,0.00,weatherlink.com 1.10,2013-02-19 11:40:00,
2013-02-19 06:55:00,27.1,19.0,30.14,SSW,210,2.0,-999.0,71,-99.99,,,0.00,weatherlink.com 1.10,2013-02-19 11:55:00,
2013-02-19 07:10:00,28.4,20.0,30.14,SSW,210,0.0,-999.0,71,-99.99,,,0.00,weatherlink.com 1.10,2013-02-19 12:10:00,
2013-02-19 07:25:00,29.6,21.0,30.14,SSW,210,0.0,-999.0,71,-99.99,,,0.00,weatherlink.com 1.10,2013-02-19 12:25:00,
2013-02-19 07:40:00,30.8,22.0,30.12,SSW,210,3.0,-999.0,71,-99.99,,,0.00,weatherlink.com 1.10,2013-02-19 12:40:00,
2013-02-19 07:55:00,32.3,24.0,30.12,SSW,210,0.0,-999.0,71,-99.99,,,0.00,weatherlink.com 1.10,2013-02-19 12:55:00,
2013-02-19 08:10:00,32.5,24.0,30.11,SSW,210,0.0,-999.0,70,-99.99,,,0.00,weatherlink.com 1.10,2013-02-19 13:10:00,
2013-02-19 08:25:00,32.5,24.0,30.12,SSW,210,0.0,-999.0,71,-99.99,,,0.00,weatherlink.com 1.10,2013-02-19 13:25:00,
2013-02-19 08:40:00,33.7,25.0,30.11,SSW,210,0.0,-999.0,71,-99.99,,,0.00,weatherlink.com 1.10,2013-02-19 13:40:00,
2013-02-19 08:55:00,35.5,27.0,30.11,SSW,200,4.0,-999.0,70,-99.99,,,0.00,weatherlink.com 1.10,2013-02-19 13:55:00,
2013-02-19 09:10:00,36.9,28.0,30.10,SSW,205,5.0,-999.0,70,-99.99,,,0.01,weatherlink.com 1.10,2013-02-19 14:10:00,
2013-02-19 09:25:00,38.2,29.0,30.11,SSW,210,10.0,-999.0,70,-99.99,,,0.01,weatherlink.com 1.10,2013-02-19 14:25:00,
2013-02-19 09:40:00,39.3,30.0,30.10,SSW,193,7.0,-999.0,70,-99.99,,,0.01,weatherlink.com 1.10,2013-02-19 14:40:00,
2013-02-19 09:55:00,39.7,31.0,30.10,South,187,10.0,-999.0,70,-99.99,,,0.02,weatherlink.com 1.10,2013-02-19 14:55:00,
2013-02-19 10:10:00,40.2,31.0,30.10,SSW,195,5.0,-999.0,70,-99.99,,,0.02,weatherlink.com 1.10,2013-02-19 15:10:00,
2013-02-19 10:25:00,40.6,31.0,30.09,South,180,5.0,-999.0,69,-99.99,,,0.02,weatherlink.com 1.10,2013-02-19 15:25:00,
2013-02-19 10:40:00,40.2,31.0,30.09,SSW,193,2.0,-999.0,69,-99.99,,,0.02,weatherlink.com 1.10,2013-02-19 15:40:00,
2013-02-19 10:55:00,41.6,32.0,30.09,South,185,10.0,-999.0,68,-99.99,,,0.02,weatherlink.com 1.10,2013-02-19 15:55:00,
2013-02-19 11:10:00,42.1,32.0,30.08,SSW,195,10.0,-999.0,68,-99.99,,,0.02,weatherlink.com 1.10,2013-02-19 16:10:00,
2013-02-19 11:25:00,41.9,32.0,30.08,SSW,196,12.0,-999.0,69,-99.99,,,0.02,weatherlink.com 1.10,2013-02-19 16:25:00,
2013-02-19 11:40:00,42.3,32.0,30.07,SSW,210,7.0,-999.0,68,-99.99,,,0.02,weatherlink.com 1.10,2013-02-19 16:40:00,
2013-02-19 11:55:00,42.9,33.0,30.06,SSW,200,10.0,-999.0,68,-99.99,,,0.02,weatherlink.com 1.10,2013-02-19 16:55:00,
2013-02-19 12:10:00,40.8,31.0,30.04,SSW,195,6.0,-999.0,67,-99.99,,,0.02,weatherlink.com 1.10,2013-02-19 17:10:00,
2013-02-19 12:25:00,39.7,29.0,30.03,South,186,3.0,-999.0,65,-99.99,,,0.02,weatherlink.com 1.10,2013-02-19 17:25:00,
2013-02-19 12:40:00,40.5,29.0,30.03,SSW,205,10.0,-999.0,63,-99.99,,,0.02,weatherlink.com 1.10,2013-02-19 17:40:00,
2013-02-19 12:55:00,42.5,32.0,30.02,South,171,9.0,-999.0,66,-99.99,,,0.02,weatherlink.com 1.10,2013-02-19 17:55:00,
2013-02-19 13:10:00,41.5,30.0,30.00,South,179,5.0,-999.0,64,-99.99,,,0.02,weatherlink.com 1.10,2013-02-19 18:10:00,
2013-02-19 13:25:00,41.4,30.0,29.99,South,188,6.0,-999.0,65,-99.99,,,0.02,weatherlink.com 1.10,2013-02-19 18:25:00,
2013-02-19 13:40:00,40.2,28.0,29.99,SSW,195,7.0,-999.0,63,-99.99,,,0.02,weatherlink.com 1.10,2013-02-19 18:40:00,
2013-02-19 13:55:00,39.2,27.0,29.98,SSW,192,3.0,-999.0,63,-99.99,,,0.02,weatherlink.com 1.10,2013-02-19 18:55:00,
2013-02-19 14:10:00,38.6,26.0,29.98,SSW,192,1.0,-999.0,60,-99.99,,,0.02,weatherlink.com 1.10,2013-02-19 19:10:00,
2013-02-19 14:25:00,39.1,24.0,29.97,SSW,192,4.0,-999.0,56,-99.99,,,0.02,weatherlink.com 1.10,2013-02-19 19:25:00,
2013-02-19 14:40:00,39.1,25.0,29.96,SSW,192,3.0,-999.0,58,-99.99,,,0.02,weatherlink.com 1.10,2013-02-19 19:40:00,
2013-02-19 14:55:00,38.6,24.0,29.95,SSW,192,1.0,-999.0,57,-99.99,,,0.02,weatherlink.com 1.10,2013-02-19 19:55:00,
2013-02-19 15:10:00,38.6,24.0,29.93,SSW,192,2.0,-999.0,56,-99.99,,,0.02,weatherlink.com 1.10,2013-02-19 20:10:00,
2013-02-19 15:25:00,38.8,24.0,29.92,SSW,192,1.0,-999.0,55,-99.99,,,0.02,weatherlink.com 1.10,2013-02-19 20:25:00,
2013-02-19 15:40:00,38.8,23.0,29.91,SSW,193,4.0,-999.0,54,-99.99,,,0.02,weatherlink.com 1.10,2013-02-19 20:40:00,
2013-02-19 15:55:00,37.8,22.0,29.90,SSW,193,4.0,-999.0,54,-99.99,,,0.02,weatherlink.com 1.10,2013-02-19 20:55:00,
2013-02-19 16:10:00,37.5,21.0,29.89,SSW,193,3.0,-999.0,51,-99.99,,,0.02,weatherlink.com 1.10,2013-02-19 21:10:00,
2013-02-19 16:25:00,37.8,20.0,29.89,SSW,196,4.0,-999.0,48,-99.99,,,0.02,weatherlink.com 1.10,2013-02-19 21:25:00,
2013-02-19 16:40:00,37.5,19.0,29.88,SSW,200,4.0,-999.0,48,-99.99,,,0.02,weatherlink.com 1.10,2013-02-19 21:40:00,
2013-02-19 16:55:00,38.3,17.0,29.87,SSW,200,7.0,-999.0,43,-99.99,,,0.02,weatherlink.com 1.10,2013-02-19 21:55:00,
2013-02-19 17:10:00,38.3,17.0,29.87,SSW,200,6.0,-999.0,42,-99.99,,,0.02,weatherlink.com 1.10,2013-02-19 22:10:00,
2013-02-19 17:25:00,38.5,16.0,29.85,SSW,200,6.0,-999.0,40,-99.99,,,0.02,weatherlink.com 1.10,2013-02-19 22:25:00,
2013-02-19 17:40:00,39.2,15.0,29.84,South,191,0.0,-999.0,38,-99.99,,,0.02,weatherlink.com 1.10,2013-02-19 22:40:00,
2013-02-19 17:55:00,37.6,14.0,29.82,South,191,2.0,-999.0,38,-99.99,,,0.02,weatherlink.com 1.10,2013-02-19 22:55:00,
2013-02-19 18:10:00,40.0,13.0,29.80,South,175,2.0,-999.0,33,-99.99,,,0.02,weatherlink.com 1.10,2013-02-19 23:10:00,
2013-02-19 18:25:00,38.1,12.0,29.79,SSW,193,1.0,-999.0,34,-99.99,,,0.02,weatherlink.com 1.10,2013-02-19 23:25:00,
2013-02-19 18:40:00,37.8,11.0,29.77,SSW,193,0.0,-999.0,33,-99.99,,,0.02,weatherlink.com 1.10,2013-02-19 23:40:00,
2013-02-19 18:55:00,38.8,10.0,29.77,SSW,193,0.0,-999.0,31,-99.99,,,0.02,weatherlink.com 1.10,2013-02-19 23:55:00,
2013-02-19 19:10:00,39.9,11.0,29.76,SSW,200,2.0,-999.0,30,-99.99,,,0.02,weatherlink.com 1.10,2013-02-20 00:10:00,
2013-02-19 19:25:00,40.1,10.0,29.75,SW,218,0.0,-999.0,29,-99.99,,,0.02,weatherlink.com 1.10,2013-02-20 00:25:00,
2013-02-19 19:40:00,40.0,10.0,29.73,SW,218,1.0,-999.0,29,-99.99,,,0.02,weatherlink.com 1.10,2013-02-20 00:40:00,
2013-02-19 19:55:00,40.5,10.0,29.71,SSW,196,1.0,-999.0,28,-99.99,,,0.02,weatherlink.com 1.10,2013-02-20 00:55:00,
2013-02-19 20:10:00,41.3,10.0,29.70,SSW,200,4.0,-999.0,28,-99.99,,,0.02,weatherlink.com 1.10,2013-02-20 01:10:00,
2013-02-19 20:25:00,44.9,12.0,29.73,SSW,200,10.0,-999.0,26,-99.99,,,0.04,weatherlink.com 1.10,2013-02-20 01:25:00,
2013-02-19 20:40:00,-999.0,-99.9,29.69,SSW,193,10.0,-999.0,26,-99.99,,,0.04,weatherlink.com 1.10,2013-02-20 01:40:00,
2013-02-19 20:57:00,41.9,10.0,29.66,SSW,205,5.0,-999.0,27,-99.99,,,0.04,weatherlink.com 1.10,2013-02-20 01:57:00,
2013-02-19 21:10:00,41.0,11.0,29.65,SSW,194,1.0,-999.0,29,-99.99,,,0.04,weatherlink.com 1.10,2013-02-20 02:10:00,
2013-02-19 21:25:00,41.1,9.0,29.63,SSW,193,3.0,-999.0,27,-99.99,,,0.04,weatherlink.com 1.10,2013-02-20 02:25:00,
2013-02-19 21:41:00,39.8,9.0,29.63,SSW,195,9.0,-999.0,28,-99.99,,,0.09,weatherlink.com 1.10,2013-02-20 02:41:00,
2013-02-19 21:56:00,-999.0,-99.9,29.63,SSW,200,14.0,-999.0,-999,-99.99,,,0.16,weatherlink.com 1.10,2013-02-20 02:56:00,
2013-02-19 22:11:00,-999.0,-99.9,29.63,SW,214,11.0,-999.0,-999,-99.99,,,0.16,weatherlink.com 1.10,2013-02-20 03:11:00,
2013-02-19 22:26:00,-999.0,-99.9,29.62,SSW,205,5.0,-999.0,-999,-99.99,,,0.16,weatherlink.com 1.10,2013-02-20 03:26:00,
2013-02-19 22:44:00,-999.0,-99.9,29.62,SSW,200,7.0,-999.0,-999,-99.99,,,0.17,weatherlink.com 1.10,2013-02-20 03:44:00,
2013-02-19 22:55:00,-999.0,-99.9,29.61,SSW,200,4.0,-999.0,-999,-99.99,,,0.18,weatherlink.com 1.10,2013-02-20 03:55:00,
2013-02-19 23:11:00,-999.0,-99.9,29.61,SSW,200,1.0,-999.0,-999,-99.99,,,0.19,weatherlink.com 1.10,2013-02-20 04:11:00,
2013-02-19 23:26:00,-999.0,-99.9,29.61,SSW,200,5.0,-999.0,-999,-99.99,,,0.19,weatherlink.com 1.10,2013-02-20 04:26:00,
2013-02-19 23:40:00,-999.0,-99.9,29.61,SSW,200,5.0,-999.0,-999,-99.99,,,0.20,weatherlink.com 1.10,2013-02-20 04:40:00,
2013-02-19 23:55:00,-999.0,-99.9,29.58,SSW,200,3.0,-999.0,-999,-99.99,,,0.20,weatherlink.com 1.10,2013-02-20 04:55:00,